Time,TemperatureF,DewpointF,PressureIn,WindDirection,WindDirectionDegrees,WindSpeedMPH,WindSpeedGustMPH,Humidity,HourlyPrecipIn,Conditions,Clouds,dailyrainin,SoftwareType,DateUTC
2013-06-06 00:03:00,41.5,24.8,29.09,North,-999,-999.0,-999.0,51,0.00,,,0.00,WSDL version 420,2013-06-06 06:03:00,
2013-06-06 00:08:00,41.1,24.4,29.09,North,-999,-999.0,-999.0,51,0.00,,,0.00,WSDL version 420,2013-06-06 06:08:00,
2013-06-06 00:13:00,40.6,24.0,29.09,North,-999,-999.0,-999.0,52,0.00,,,0.00,WSDL version 420,2013-06-06 06:13:00,
2013-06-06 00:18:00,40.3,24.1,29.09,North,-999,-999.0,-999.0,52,0.00,,,0.00,WSDL version 420,2013-06-06 06:18:00,
2013-06-06 00:23:00,40.0,23.9,29.09,North,-999,-999.0,-999.0,53,0.00,,,0.00,WSDL version 420,2013-06-06 06:23:00,
2013-06-06 00:28:00,39.7,24.0,29.06,North,-999,-999.0,-999.0,53,0.00,,,0.00,WSDL version 420,2013-06-06 06:28:00,
2013-06-06 00:33:00,39.7,24.5,29.06,North,-999,-999.0,-999.0,54,0.00,,,0.00,WSDL version 420,2013-06-06 06:33:00,
2013-06-06 00:38:00,39.7,24.6,29.06,North,-999,-999.0,-999.0,55,0.00,,,0.00,WSDL version 420,2013-06-06 06:38:00,
2013-06-06 00:43:00,39.4,24.6,29.09,North,-999,-999.0,-999.0,55,0.00,,,0.00,WSDL version 420,2013-06-06 06:43:00,
2013-06-06 00:48:00,39.2,24.6,29.09,North,-999,-999.0,-999.0,56,0.00,,,0.00,WSDL version 420,2013-06-06 06:48:00,
2013-06-06 00:53:00,39.1,24.8,29.09,North,-999,-999.0,-999.0,56,0.00,,,0.00,WSDL version 420,2013-06-06 06:53:00,
2013-06-06 00:58:00,38.9,25.0,29.06,North,-999,-999.0,-999.0,57,0.00,,,0.00,WSDL version 420,2013-06-06 06:58:00,
2013-06-06 01:03:00,38.8,25.0,29.06,North,-999,-999.0,-999.0,58,0.00,,,0.00,WSDL version 420,2013-06-06 07:03:00,
2013-06-06 01:08:00,39.1,26.0,29.06,North,-999,-999.0,-999.0,59,0.00,,,0.00,WSDL version 420,2013-06-06 07:08:00,
2013-06-06 01:13:00,39.2,26.1,29.06,North,-999,-999.0,-999.0,59,0.00,,,0.00,WSDL version 420,2013-06-06 07:13:00,
2013-06-06 01:18:00,39.6,27.2,29.06,North,-999,-999.0,-999.0,62,0.00,,,0.00,WSDL version 420,2013-06-06 07:18:00,
2013-06-06 01:23:00,39.9,28.0,29.06,North,-999,-999.0,-999.0,63,0.00,,,0.00,WSDL version 420,2013-06-06 07:23:00,
2013-06-06 01:28:00,39.7,27.9,29.06,North,-999,-999.0,-999.0,62,0.00,,,0.00,WSDL version 420,2013-06-06 07:28:00,
2013-06-06 01:33:00,39.5,27.5,29.06,North,-999,-999.0,-999.0,62,0.00,,,0.00,WSDL version 420,2013-06-06 07:33:00,
2013-06-06 01:38:00,39.0,27.1,29.06,North,-999,-999.0,-999.0,62,0.00,,,0.00,WSDL version 420,2013-06-06 07:38:00,
2013-06-06 01:43:00,38.6,26.4,29.06,North,-999,-999.0,-999.0,61,0.00,,,0.00,WSDL version 420,2013-06-06 07:43:00,
2013-06-06 01:48:00,38.3,26.4,29.06,North,-999,-999.0,-999.0,62,0.00,,,0.00,WSDL version 420,2013-06-06 07:48:00,
2013-06-06 01:53:00,38.1,26.4,29.06,North,-999,-999.0,-999.0,63,0.00,,,0.00,WSDL version 420,2013-06-06 07:53:00,
2013-06-06 01:58:00,39.7,33.4,29.06,North,-999,-999.0,-999.0,83,0.00,,,0.00,WSDL version 420,2013-06-06 07:58:00,
2013-06-06 02:03:00,41.0,36.7,29.06,North,-999,-999.0,-999.0,84,0.00,,,0.00,WSDL version 420,2013-06-06 08:03:00,
2013-06-06 02:08:00,41.5,37.3,29.06,North,-999,-999.0,-999.0,86,0.00,,,0.00,WSDL version 420,2013-06-06 08:08:00,
2013-06-06 02:13:00,41.9,37.8,29.06,North,-999,-999.0,-999.0,84,0.00,,,0.00,WSDL version 420,2013-06-06 08:13:00,
2013-06-06 02:18:00,42.1,37.7,29.06,North,-999,-999.0,-999.0,84,0.00,,,0.00,WSDL version 420,2013-06-06 08:18:00,
2013-06-06 02:23:00,42.2,37.6,29.06,North,-999,-999.0,-999.0,84,0.00,,,0.00,WSDL version 420,2013-06-06 08:23:00,
2013-06-06 02:28:00,42.4,38.0,29.06,North,-999,-999.0,-999.0,84,0.00,,,0.00,WSDL version 420,2013-06-06 08:28:00,
2013-06-06 02:33:00,42.5,38.2,29.06,North,-999,-999.0,-999.0,84,0.00,,,0.00,WSDL version 420,2013-06-06 08:33:00,
2013-06-06 02:38:00,42.9,38.0,29.06,North,-999,-999.0,-999.0,82,0.00,,,0.00,WSDL version 420,2013-06-06 08:38:00,
2013-06-06 02:43:00,43.0,37.7,29.06,North,-999,-999.0,-999.0,81,0.00,,,0.00,WSDL version 420,2013-06-06 08:43:00,
2013-06-06 02:48:00,43.3,37.1,29.03,North,-999,-999.0,-999.0,78,0.00,,,0.00,WSDL version 420,2013-06-06 08:48:00,
2013-06-06 02:53:00,43.3,36.6,29.03,North,-999,-999.0,-999.0,77,0.00,,,0.00,WSDL version 420,2013-06-06 08:53:00,
2013-06-06 02:58:00,43.1,36.2,29.03,North,-999,-999.0,-999.0,77,0.00,,,0.00,WSDL version 420,2013-06-06 08:58:00,
2013-06-06 03:03:00,43.0,36.3,29.03,North,-999,-999.0,-999.0,77,0.00,,,0.00,WSDL version 420,2013-06-06 09:03:00,
2013-06-06 03:08:00,43.1,36.7,29.03,North,-999,-999.0,-999.0,78,0.00,,,0.00,WSDL version 420,2013-06-06 09:08:00,
2013-06-06 03:13:00,43.3,36.8,29.03,North,-999,-999.0,-999.0,77,0.00,,,0.00,WSDL version 420,2013-06-06 09:13:00,
2013-06-06 03:18:00,43.5,36.8,29.03,North,-999,-999.0,-999.0,77,0.00,,,0.00,WSDL version 420,2013-06-06 09:18:00,
2013-06-06 03:23:00,43.5,36.5,29.03,North,-999,-999.0,-999.0,76,0.00,,,0.00,WSDL version 420,2013-06-06 09:23:00,
2013-06-06 03:28:00,43.6,36.3,29.03,North,-999,-999.0,-999.0,75,0.00,,,0.00,WSDL version 420,2013-06-06 09:28:00,
2013-06-06 03:33:00,43.7,36.0,29.03,North,-999,-999.0,-999.0,73,0.00,,,0.00,WSDL version 420,2013-06-06 09:33:00,
2013-06-06 03:38:00,43.7,35.6,29.03,North,-999,-999.0,-999.0,73,0.00,,,0.00,WSDL version 420,2013-06-06 09:38:00,
2013-06-06 03:43:00,43.7,35.6,29.03,North,-999,-999.0,-999.0,73,0.00,,,0.00,WSDL version 420,2013-06-06 09:43:00,
2013-06-06 03:48:00,43.7,35.3,29.03,North,-999,-999.0,-999.0,72,0.00,,,0.00,WSDL version 420,2013-06-06 09:48:00,
2013-06-06 03:53:00,43.7,35.3,29.03,North,-999,-999.0,-999.0,72,0.00,,,0.00,WSDL version 420,2013-06-06 09:53:00,
2013-06-06 03:58:00,43.6,35.2,29.03,North,-999,-999.0,-999.0,72,0.00,,,0.00,WSDL version 420,2013-06-06 09:58:00,
2013-06-06 04:03:00,43.5,35.4,29.03,North,-999,-999.0,-999.0,73,0.00,,,0.00,WSDL version 420,2013-06-06 10:03:00,
2013-06-06 04:08:00,43.3,35.7,29.03,North,-999,-999.0,-999.0,75,0.00,,,0.00,WSDL version 420,2013-06-06 10:08:00,
2013-06-06 04:13:00,43.2,35.8,29.03,North,-999,-999.0,-999.0,75,0.00,,,0.00,WSDL version 420,2013-06-06 10:13:00,
2013-06-06 04:18:00,43.1,36.0,29.03,North,-999,-999.0,-999.0,76,0.00,,,0.00,WSDL version 420,2013-06-06 10:18:00,
2013-06-06 04:23:00,43.0,36.2,29.03,North,-999,-999.0,-999.0,77,0.00,,,0.00,WSDL version 420,2013-06-06 10:23:00,
2013-06-06 04:28:00,42.9,36.2,29.03,North,-999,-999.0,-999.0,77,0.00,,,0.00,WSDL version 420,2013-06-06 10:28:00,
2013-06-06 04:33:00,42.8,36.4,29.03,North,-999,-999.0,-999.0,79,0.00,,,0.00,WSDL version 420,2013-06-06 10:33:00,
2013-06-06 04:38:00,42.8,36.7,29.03,North,-999,-999.0,-999.0,79,0.00,,,0.00,WSDL version 420,2013-06-06 10:38:00,
2013-06-06 04:43:00,42.8,37.1,29.03,North,-999,-999.0,-999.0,80,0.00,,,0.00,WSDL version 420,2013-06-06 10:43:00,
2013-06-06 04:48:00,42.8,37.1,29.03,North,-999,-999.0,-999.0,80,0.00,,,0.00,WSDL version 420,2013-06-06 10:48:00,
2013-06-06 04:53:00,42.8,37.0,29.03,North,-999,-999.0,-999.0,79,0.00,,,0.00,WSDL version 420,2013-06-06 10:53:00,
2013-06-06 04:58:00,42.9,36.9,29.03,North,-999,-999.0,-999.0,79,0.00,,,0.00,WSDL version 420,2013-06-06 10:58:00,
2013-06-06 05:03:00,43.0,36.9,29.03,North,-999,-999.0,-999.0,79,0.00,,,0.00,WSDL version 420,2013-06-06 11:03:00,
2013-06-06 05:08:00,43.0,36.8,29.03,North,-999,-999.0,-999.0,78,0.00,,,0.00,WSDL version 420,2013-06-06 11:08:00,
2013-06-06 05:13:00,43.0,36.6,29.03,North,-999,-999.0,-999.0,78,0.00,,,0.00,WSDL version 420,2013-06-06 11:13:00,
2013-06-06 05:18:00,43.0,36.6,29.03,North,-999,-999.0,-999.0,78,0.00,,,0.00,WSDL version 420,2013-06-06 11:18:00,
2013-06-06 05:23:00,43.0,36.4,29.03,North,-999,-999.0,-999.0,77,0.00,,,0.00,WSDL version 420,2013-06-06 11:23:00,
2013-06-06 05:28:00,43.2,36.4,29.03,North,-999,-999.0,-999.0,77,0.00,,,0.00,WSDL version 420,2013-06-06 11:28:00,
2013-06-06 05:33:00,43.3,36.6,29.03,North,-999,-999.0,-999.0,77,0.00,,,0.00,WSDL version 420,2013-06-06 11:33:00,
2013-06-06 05:38:00,43.4,36.4,29.03,North,-999,-999.0,-999.0,76,0.00,,,0.00,WSDL version 420,2013-06-06 11:38:00,
2013-06-06 05:43:00,43.5,36.4,29.03,North,-999,-999.0,-999.0,75,0.00,,,0.00,WSDL version 420,2013-06-06 11:43:00,
2013-06-06 05:48:00,43.7,36.3,29.03,North,-999,-999.0,-999.0,75,0.00,,,0.00,WSDL version 420,2013-06-06 11:48:00,
2013-06-06 05:53:00,43.7,36.3,29.03,North,-999,-999.0,-999.0,75,0.00,,,0.00,WSDL version 420,2013-06-06 11:53:00,
2013-06-06 05:58:00,44.0,36.6,29.03,North,-999,-999.0,-999.0,75,0.00,,,0.00,WSDL version 420,2013-06-06 11:58:00,
2013-06-06 06:03:00,44.1,36.3,29.06,North,-999,-999.0,-999.0,73,0.00,,,0.00,WSDL version 420,2013-06-06 12:03:00,
2013-06-06 06:08:00,44.4,36.3,29.06,North,-999,-999.0,-999.0,73,0.00,,,0.00,WSDL version 420,2013-06-06 12:08:00,
2013-06-06 06:13:00,47.3,37.2,29.03,North,-999,-999.0,-999.0,61,-99.99,,,-99.99,WSDL version 420,2013-06-06 12:13:00,
2013-06-06 06:18:00,51.2,34.5,29.03,North,-999,-999.0,-999.0,49,0.00,,,0.00,WSDL version 420,2013-06-06 12:18:00,
2013-06-06 06:23:00,53.5,33.9,29.03,North,-999,-999.0,-999.0,46,0.00,,,0.00,WSDL version 420,2013-06-06 12:23:00,
2013-06-06 06:28:00,55.5,33.8,29.03,North,-999,-999.0,-999.0,42,0.00,,,0.00,WSDL version 420,2013-06-06 12:28:00,
2013-06-06 06:33:00,56.8,32.6,29.03,North,-999,-999.0,-999.0,39,0.00,,,0.00,WSDL version 420,2013-06-06 12:33:00,
2013-06-06 06:38:00,57.4,32.2,29.03,North,-999,-999.0,-999.0,38,0.00,,,0.00,WSDL version 420,2013-06-06 12:38:00,
2013-06-06 06:43:00,59.1,32.7,29.06,North,-999,-999.0,-999.0,36,0.00,,,0.00,WSDL version 420,2013-06-06 12:43:00,
2013-06-06 06:48:00,60.3,32.5,29.06,North,-999,-999.0,-999.0,35,0.00,,,0.00,WSDL version 420,2013-06-06 12:48:00,
2013-06-06 06:53:00,61.2,32.6,29.06,North,-999,-999.0,-999.0,34,0.00,,,0.00,WSDL version 420,2013-06-06 12:53:00,
2013-06-06 06:58:00,61.7,31.2,29.03,North,-999,-999.0,-999.0,31,0.00,,,0.00,WSDL version 420,2013-06-06 12:58:00,
2013-06-06 07:03:00,61.8,30.3,29.03,North,-999,-999.0,-999.0,30,0.00,,,0.00,WSDL version 420,2013-06-06 13:03:00,
2013-06-06 07:08:00,61.7,30.0,29.03,North,-999,-999.0,-999.0,30,0.00,,,0.00,WSDL version 420,2013-06-06 13:08:00,
2013-06-06 07:13:00,62.1,30.1,29.06,North,-999,-999.0,-999.0,29,0.00,,,0.00,WSDL version 420,2013-06-06 13:13:00,
2013-06-06 07:18:00,63.2,29.8,29.06,North,-999,-999.0,-999.0,28,0.00,,,0.00,WSDL version 420,2013-06-06 13:18:00,
2013-06-06 07:23:00,64.2,29.6,29.06,North,-999,-999.0,-999.0,27,0.00,,,0.00,WSDL version 420,2013-06-06 13:23:00,
2013-06-06 07:28:00,65.5,29.7,29.03,North,-999,-999.0,-999.0,26,0.00,,,0.00,WSDL version 420,2013-06-06 13:28:00,
2013-06-06 07:33:00,66.3,29.4,29.03,North,-999,-999.0,-999.0,25,0.00,,,0.00,WSDL version 420,2013-06-06 13:33:00,
2013-06-06 07:38:00,66.7,28.8,29.03,North,-999,-999.0,-999.0,24,0.00,,,0.00,WSDL version 420,2013-06-06 13:38:00,
2013-06-06 07:43:00,66.8,28.9,29.06,North,-999,-999.0,-999.0,24,0.00,,,0.00,WSDL version 420,2013-06-06 13:43:00,
2013-06-06 07:48:00,67.7,29.1,29.06,North,-999,-999.0,-999.0,23,0.00,,,0.00,WSDL version 420,2013-06-06 13:48:00,
2013-06-06 07:53:00,69.6,30.2,29.06,North,-999,-999.0,-999.0,23,0.00,,,0.00,WSDL version 420,2013-06-06 13:53:00,
2013-06-06 07:58:00,71.0,31.4,29.06,North,-999,-999.0,-999.0,23,0.00,,,0.00,WSDL version 420,2013-06-06 13:58:00,
2013-06-06 08:03:00,72.5,31.5,29.06,North,-999,-999.0,-999.0,22,0.00,,,0.00,WSDL version 420,2013-06-06 14:03:00,
2013-06-06 08:08:00,73.1,31.7,29.06,North,-999,-999.0,-999.0,21,0.00,,,0.00,WSDL version 420,2013-06-06 14:08:00,
2013-06-06 08:13:00,73.9,31.6,29.03,North,-999,-999.0,-999.0,21,0.00,,,0.00,WSDL version 420,2013-06-06 14:13:00,
2013-06-06 08:18:00,74.9,32.0,29.03,North,-999,-999.0,-999.0,21,0.00,,,0.00,WSDL version 420,2013-06-06 14:18:00,
2013-06-06 08:23:00,76.2,32.2,29.03,North,-999,-999.0,-999.0,20,0.00,,,0.00,WSDL version 420,2013-06-06 14:23:00,
2013-06-06 08:28:00,76.2,31.6,29.03,North,-999,-999.0,-999.0,18,0.00,,,0.00,WSDL version 420,2013-06-06 14:28:00,
2013-06-06 08:33:00,77.6,32.8,29.03,North,-999,-999.0,-999.0,18,0.00,,,0.00,WSDL version 420,2013-06-06 14:33:00,
2013-06-06 08:38:00,78.0,31.1,29.03,North,-999,-999.0,-999.0,18,0.00,,,0.00,WSDL version 420,2013-06-06 14:38:00,
2013-06-06 08:43:00,80.3,31.6,29.03,North,-999,-999.0,-999.0,17,0.00,,,0.00,WSDL version 420,2013-06-06 14:43:00,
2013-06-06 08:48:00,81.4,32.5,29.03,North,-999,-999.0,-999.0,17,0.00,,,0.00,WSDL version 420,2013-06-06 14:48:00,
2013-06-06 08:53:00,83.3,32.5,29.03,North,-999,-999.0,-999.0,16,0.00,,,0.00,WSDL version 420,2013-06-06 14:53:00,
2013-06-06 08:58:00,84.8,33.7,29.03,North,-999,-999.0,-999.0,16,0.00,,,0.00,WSDL version 420,2013-06-06 14:58:00,
2013-06-06 09:03:00,84.8,28.6,29.03,North,-999,-999.0,-999.0,13,0.00,,,0.00,WSDL version 420,2013-06-06 15:03:00,
2013-06-06 09:08:00,86.2,29.6,29.03,North,-999,-999.0,-999.0,13,0.00,,,0.00,WSDL version 420,2013-06-06 15:08:00,
2013-06-06 09:13:00,87.7,30.8,29.03,North,-999,-999.0,-999.0,13,0.00,,,0.00,WSDL version 420,2013-06-06 15:13:00,
2013-06-06 09:18:00,-999.0,-99.9,29.03,North,-999,-999.0,-999.0,-999,0.00,,,0.00,WSDL version 420,2013-06-06 15:18:00,
2013-06-06 09:23:00,89.5,31.2,29.03,North,-999,-999.0,-999.0,12,0.00,,,0.00,WSDL version 420,2013-06-06 15:23:00,
2013-06-06 09:28:00,90.8,31.2,29.03,North,-999,-999.0,-999.0,12,-99.99,,,-99.99,WSDL version 420,2013-06-06 15:28:00,
2013-06-06 09:33:00,91.3,31.7,29.03,North,-999,-999.0,-999.0,12,0.00,,,0.00,WSDL version 420,2013-06-06 15:33:00,
2013-06-06 09:38:00,91.7,31.9,29.03,North,-999,-999.0,-999.0,12,0.00,,,0.00,WSDL version 420,2013-06-06 15:38:00,
2013-06-06 09:43:00,90.7,31.7,29.03,North,-999,-999.0,-999.0,12,0.00,,,0.00,WSDL version 420,2013-06-06 15:43:00,
2013-06-06 09:48:00,89.4,31.2,29.03,North,-999,-999.0,-999.0,13,0.00,,,0.00,WSDL version 420,2013-06-06 15:48:00,
2013-06-06 09:53:00,89.3,31.6,29.03,North,-999,-999.0,-999.0,13,0.00,,,0.00,WSDL version 420,2013-06-06 15:53:00,
2013-06-06 09:58:00,87.2,30.4,29.03,North,-999,-999.0,-999.0,13,0.00,,,0.00,WSDL version 420,2013-06-06 15:58:00,
2013-06-06 10:03:00,87.0,30.3,29.03,North,-999,-999.0,-999.0,13,0.00,,,0.00,WSDL version 420,2013-06-06 16:03:00,
2013-06-06 10:08:00,87.6,30.8,29.03,North,-999,-999.0,-999.0,13,0.00,,,0.00,WSDL version 420,2013-06-06 16:08:00,
2013-06-06 10:13:00,87.9,31.0,29.00,North,-999,-999.0,-999.0,13,0.00,,,0.00,WSDL version 420,2013-06-06 16:13:00,
2013-06-06 10:18:00,87.4,30.6,29.00,North,-999,-999.0,-999.0,13,0.00,,,0.00,WSDL version 420,2013-06-06 16:18:00,
2013-06-06 10:23:00,86.9,30.2,29.00,North,-999,-999.0,-999.0,13,0.00,,,0.00,WSDL version 420,2013-06-06 16:23:00,
2013-06-06 10:28:00,84.6,29.1,29.03,North,-999,-999.0,-999.0,13,0.00,,,0.00,WSDL version 420,2013-06-06 16:28:00,
2013-06-06 10:33:00,83.5,28.8,29.03,North,-999,-999.0,-999.0,14,0.00,,,0.00,WSDL version 420,2013-06-06 16:33:00,
2013-06-06 10:38:00,-999.0,-99.9,29.03,North,-999,-999.0,-999.0,-999,0.00,,,0.00,WSDL version 420,2013-06-06 16:38:00,
2013-06-06 10:43:00,84.7,29.2,29.03,North,-999,-999.0,-999.0,13,0.00,,,0.00,WSDL version 420,2013-06-06 16:43:00,
2013-06-06 10:48:00,83.2,29.1,29.03,North,-999,-999.0,-999.0,14,0.00,,,0.00,WSDL version 420,2013-06-06 16:48:00,
2013-06-06 10:53:00,81.9,28.0,29.03,North,-999,-999.0,-999.0,14,0.00,,,0.00,WSDL version 420,2013-06-06 16:53:00,
2013-06-06 10:58:00,81.0,27.3,29.03,North,-999,-999.0,-999.0,14,-99.99,,,-99.99,WSDL version 420,2013-06-06 16:58:00,
2013-06-06 11:03:00,80.6,27.4,29.03,North,-999,-999.0,-999.0,15,0.00,,,0.00,WSDL version 420,2013-06-06 17:03:00,
2013-06-06 11:08:00,80.9,27.7,29.03,North,-999,-999.0,-999.0,14,-99.99,,,-99.99,WSDL version 420,2013-06-06 17:08:00,
2013-06-06 11:13:00,81.0,27.9,29.03,North,-999,-999.0,-999.0,14,-99.99,,,-99.99,WSDL version 420,2013-06-06 17:13:00,
2013-06-06 11:18:00,81.3,28.0,29.03,North,-999,-999.0,-999.0,14,0.00,,,0.00,WSDL version 420,2013-06-06 17:18:00,
2013-06-06 11:23:00,80.1,27.9,29.03,North,-999,-999.0,-999.0,15,0.00,,,0.00,WSDL version 420,2013-06-06 17:23:00,
2013-06-06 11:28:00,79.2,27.6,29.03,North,-999,-999.0,-999.0,15,-99.99,,,-99.99,WSDL version 420,2013-06-06 17:28:00,
2013-06-06 11:33:00,79.2,27.6,29.03,North,-999,-999.0,-999.0,15,-99.99,,,-99.99,WSDL version 420,2013-06-06 17:33:00,
2013-06-06 11:38:00,78.7,27.2,29.03,North,-999,-999.0,-999.0,15,-99.99,,,-99.99,WSDL version 420,2013-06-06 17:38:00,
2013-06-06 11:43:00,78.8,27.3,29.03,North,-999,-999.0,-999.0,15,0.00,,,0.00,WSDL version 420,2013-06-06 17:43:00,
2013-06-06 11:48:00,78.4,27.0,29.03,North,-999,-999.0,-999.0,15,-99.99,,,-99.99,WSDL version 420,2013-06-06 17:48:00,
2013-06-06 11:53:00,77.9,26.6,29.03,North,-999,-999.0,-999.0,15,-99.99,,,-99.99,WSDL version 420,2013-06-06 17:53:00,
2013-06-06 11:58:00,76.5,25.5,29.03,North,-999,-999.0,-999.0,15,-99.99,,,-99.99,WSDL version 420,2013-06-06 17:58:00,
2013-06-06 12:03:00,75.9,25.0,29.03,North,-999,-999.0,-999.0,15,-99.99,,,-99.99,WSDL version 420,2013-06-06 18:03:00,
2013-06-06 12:08:00,77.3,26.1,29.03,North,-999,-999.0,-999.0,15,0.00,,,0.00,WSDL version 420,2013-06-06 18:08:00,
2013-06-06 12:13:00,77.4,26.2,29.03,North,-999,-999.0,-999.0,15,-99.99,,,-99.99,WSDL version 420,2013-06-06 18:13:00,
2013-06-06 12:18:00,76.6,25.6,29.03,North,-999,-999.0,-999.0,15,-99.99,,,-99.99,WSDL version 420,2013-06-06 18:18:00,
2013-06-06 12:23:00,76.4,25.4,29.03,North,-999,-999.0,-999.0,15,0.00,,,0.00,WSDL version 420,2013-06-06 18:23:00,
2013-06-06 12:28:00,75.8,24.9,29.03,North,-999,-999.0,-999.0,15,0.00,,,0.00,WSDL version 420,2013-06-06 18:28:00,
2013-06-06 12:33:00,75.6,24.7,29.03,North,-999,-999.0,-999.0,15,-99.99,,,-99.99,WSDL version 420,2013-06-06 18:33:00,
2013-06-06 12:38:00,75.4,24.6,29.03,North,-999,-999.0,-999.0,15,0.00,,,0.00,WSDL version 420,2013-06-06 18:38:00,
2013-06-06 12:43:00,75.9,25.0,29.03,North,-999,-999.0,-999.0,15,0.00,,,0.00,WSDL version 420,2013-06-06 18:43:00,
2013-06-06 12:48:00,75.6,24.7,29.03,North,-999,-999.0,-999.0,15,0.00,,,0.00,WSDL version 420,2013-06-06 18:48:00,
2013-06-06 12:53:00,75.6,24.8,29.03,North,-999,-999.0,-999.0,15,0.00,,,0.00,WSDL version 420,2013-06-06 18:53:00,
2013-06-06 12:58:00,75.9,25.0,29.03,North,-999,-999.0,-999.0,15,-99.99,,,-99.99,WSDL version 420,2013-06-06 18:58:00,
2013-06-06 13:03:00,75.1,25.1,29.03,North,-999,-999.0,-999.0,16,0.00,,,0.00,WSDL version 420,2013-06-06 19:03:00,
2013-06-06 13:09:00,75.2,25.0,29.03,North,-999,-999.0,-999.0,15,-99.99,,,-99.99,WSDL version 420,2013-06-06 19:09:00,
2013-06-06 13:14:00,75.5,24.7,29.03,North,-999,-999.0,-999.0,15,0.00,,,0.00,WSDL version 420,2013-06-06 19:14:00,
2013-06-06 13:19:00,75.7,24.8,29.03,North,-999,-999.0,-999.0,15,0.00,,,0.00,WSDL version 420,2013-06-06 19:19:00,
2013-06-06 13:24:00,75.2,24.8,29.03,North,-999,-999.0,-999.0,16,0.00,,,0.00,WSDL version 420,2013-06-06 19:24:00,
2013-06-06 13:29:00,75.0,25.8,29.03,North,-999,-999.0,-999.0,16,0.00,,,0.00,WSDL version 420,2013-06-06 19:29:00,
2013-06-06 13:34:00,75.1,25.4,29.03,North,-999,-999.0,-999.0,16,0.00,,,0.00,WSDL version 420,2013-06-06 19:34:00,
2013-06-06 13:39:00,74.8,25.1,29.03,North,-999,-999.0,-999.0,16,0.00,,,0.00,WSDL version 420,2013-06-06 19:39:00,
2013-06-06 13:40:00,74.6,25.5,29.03,North,-999,-999.0,-999.0,16,0.00,,,0.00,WSDL version 420,2013-06-06 19:40:00,
2013-06-06 13:45:00,74.2,25.1,29.03,North,-999,-999.0,-999.0,16,-99.99,,,-99.99,WSDL version 420,2013-06-06 19:45:00,
2013-06-06 13:50:00,74.8,25.6,29.03,North,-999,-999.0,-999.0,16,-99.99,,,-99.99,WSDL version 420,2013-06-06 19:50:00,
2013-06-06 13:55:00,75.1,25.1,29.03,North,-999,-999.0,-999.0,15,-99.99,,,-99.99,WSDL version 420,2013-06-06 19:55:00,
2013-06-06 14:00:00,75.8,24.9,29.03,North,-999,-999.0,-999.0,15,-99.99,,,-99.99,WSDL version 420,2013-06-06 20:00:00,
2013-06-06 14:05:00,76.0,25.0,29.03,North,-999,-999.0,-999.0,15,0.00,,,0.00,WSDL version 420,2013-06-06 20:05:00,
2013-06-06 14:10:00,75.7,24.8,29.03,North,-999,-999.0,-999.0,15,0.00,,,0.00,WSDL version 420,2013-06-06 20:10:00,
2013-06-06 14:15:00,75.4,24.6,29.03,North,-999,-999.0,-999.0,15,0.00,,,0.00,WSDL version 420,2013-06-06 20:15:00,
2013-06-06 14:20:00,75.3,24.5,29.03,North,-999,-999.0,-999.0,15,0.00,,,0.00,WSDL version 420,2013-06-06 20:20:00,
2013-06-06 14:25:00,75.7,24.8,29.03,North,-999,-999.0,-999.0,15,-99.99,,,-99.99,WSDL version 420,2013-06-06 20:25:00,
2013-06-06 14:30:00,75.0,25.4,29.00,North,-999,-999.0,-999.0,16,0.00,,,0.00,WSDL version 420,2013-06-06 20:30:00,
2013-06-06 14:35:00,74.7,25.6,29.00,North,-999,-999.0,-999.0,16,0.00,,,0.00,WSDL version 420,2013-06-06 20:35:00,
2013-06-06 14:40:00,74.1,25.1,29.00,North,-999,-999.0,-999.0,16,0.00,,,0.00,WSDL version 420,2013-06-06 20:40:00,
2013-06-06 14:45:00,74.1,25.1,29.03,North,-999,-999.0,-999.0,16,-99.99,,,-99.99,WSDL version 420,2013-06-06 20:45:00,
2013-06-06 14:50:00,74.2,25.2,29.03,North,-999,-999.0,-999.0,16,0.00,,,0.00,WSDL version 420,2013-06-06 20:50:00,
2013-06-06 14:55:00,74.2,25.2,29.03,North,-999,-999.0,-999.0,16,-99.99,,,-99.99,WSDL version 420,2013-06-06 20:55:00,
2013-06-06 15:01:00,73.9,24.9,29.03,North,-999,-999.0,-999.0,16,0.00,,,0.00,WSDL version 420,2013-06-06 21:01:00,
2013-06-06 15:07:00,73.4,24.5,29.03,North,-999,-999.0,-999.0,16,-99.99,,,-99.99,WSDL version 420,2013-06-06 21:07:00,
2013-06-06 15:12:00,73.4,24.5,29.03,North,-999,-999.0,-999.0,16,-99.99,,,-99.99,WSDL version 420,2013-06-06 21:12:00,
2013-06-06 15:17:00,73.5,24.6,29.03,North,-999,-999.0,-999.0,16,-99.99,,,-99.99,WSDL version 420,2013-06-06 21:17:00,
2013-06-06 15:22:00,74.0,25.0,29.03,North,-999,-999.0,-999.0,16,-99.99,,,-99.99,WSDL version 420,2013-06-06 21:22:00,
2013-06-06 15:27:00,74.0,25.0,29.03,North,-999,-999.0,-999.0,16,0.00,,,0.00,WSDL version 420,2013-06-06 21:27:00,
2013-06-06 15:32:00,74.0,25.0,29.03,North,-999,-999.0,-999.0,16,0.00,,,0.00,WSDL version 420,2013-06-06 21:32:00,
2013-06-06 15:38:00,73.7,24.8,29.03,North,-999,-999.0,-999.0,16,-99.99,,,-99.99,WSDL version 420,2013-06-06 21:38:00,
2013-06-06 15:43:00,73.7,24.8,29.03,North,-999,-999.0,-999.0,16,0.00,,,0.00,WSDL version 420,2013-06-06 21:43:00,
2013-06-06 15:48:00,73.4,24.5,29.03,North,-999,-999.0,-999.0,16,-99.99,,,-99.99,WSDL version 420,2013-06-06 21:48:00,
2013-06-06 15:53:00,73.5,24.6,29.03,North,-999,-999.0,-999.0,16,-99.99,,,-99.99,WSDL version 420,2013-06-06 21:53:00,
2013-06-06 15:58:00,73.6,24.7,29.03,North,-999,-999.0,-999.0,16,-99.99,,,-99.99,WSDL version 420,2013-06-06 21:58:00,
2013-06-06 16:03:00,73.3,24.4,29.03,North,-999,-999.0,-999.0,16,0.00,,,0.00,WSDL version 420,2013-06-06 22:03:00,
2013-06-06 16:08:00,73.1,24.3,29.03,North,-999,-999.0,-999.0,16,-99.99,,,-99.99,WSDL version 420,2013-06-06 22:08:00,
2013-06-06 16:13:00,73.1,24.3,29.03,North,-999,-999.0,-999.0,16,-99.99,,,-99.99,WSDL version 420,2013-06-06 22:13:00,
2013-06-06 16:18:00,73.2,24.4,29.03,North,-999,-999.0,-999.0,16,-99.99,,,-99.99,WSDL version 420,2013-06-06 22:18:00,
2013-06-06 16:23:00,73.4,24.5,29.03,North,-999,-999.0,-999.0,16,-99.99,,,-99.99,WSDL version 420,2013-06-06 22:23:00,
2013-06-06 16:28:00,73.7,24.7,29.03,North,-999,-999.0,-999.0,16,-99.99,,,-99.99,WSDL version 420,2013-06-06 22:28:00,
2013-06-06 16:33:00,73.4,24.6,29.03,North,-999,-999.0,-999.0,16,-99.99,,,-99.99,WSDL version 420,2013-06-06 22:33:00,
2013-06-06 16:38:00,72.8,24.0,29.03,North,-999,-999.0,-999.0,16,-99.99,,,-99.99,WSDL version 420,2013-06-06 22:38:00,
2013-06-06 16:43:00,72.5,23.8,29.03,North,-999,-999.0,-999.0,16,0.00,,,0.00,WSDL version 420,2013-06-06 22:43:00,
2013-06-06 16:48:00,72.9,24.1,29.03,North,-999,-999.0,-999.0,16,0.00,,,0.00,WSDL version 420,2013-06-06 22:48:00,
2013-06-06 16:53:00,73.2,24.3,29.03,North,-999,-999.0,-999.0,16,-99.99,,,-99.99,WSDL version 420,2013-06-06 22:53:00,
2013-06-06 16:58:00,73.4,24.5,29.03,North,-999,-999.0,-999.0,16,-99.99,,,-99.99,WSDL version 420,2013-06-06 22:58:00,
2013-06-06 17:03:00,73.7,24.8,29.03,North,-999,-999.0,-999.0,16,-99.99,,,-99.99,WSDL version 420,2013-06-06 23:03:00,
2013-06-06 17:08:00,73.3,24.5,29.03,North,-999,-999.0,-999.0,16,0.00,,,0.00,WSDL version 420,2013-06-06 23:08:00,
2013-06-06 17:13:00,73.4,24.5,29.03,North,-999,-999.0,-999.0,16,0.00,,,0.00,WSDL version 420,2013-06-06 23:13:00,
2013-06-06 17:18:00,73.3,24.5,29.03,North,-999,-999.0,-999.0,16,-99.99,,,-99.99,WSDL version 420,2013-06-06 23:18:00,
2013-06-06 17:23:00,73.1,24.3,29.03,North,-999,-999.0,-999.0,16,0.00,,,0.00,WSDL version 420,2013-06-06 23:23:00,
2013-06-06 17:28:00,72.7,24.0,29.03,North,-999,-999.0,-999.0,16,-99.99,,,-99.99,WSDL version 420,2013-06-06 23:28:00,
2013-06-06 17:33:00,72.4,23.7,29.03,North,-999,-999.0,-999.0,16,0.00,,,0.00,WSDL version 420,2013-06-06 23:33:00,
2013-06-06 17:38:00,71.8,23.3,29.03,North,-999,-999.0,-999.0,16,-99.99,,,-99.99,WSDL version 420,2013-06-06 23:38:00,
2013-06-06 17:43:00,71.7,23.1,29.03,North,-999,-999.0,-999.0,16,-99.99,,,-99.99,WSDL version 420,2013-06-06 23:43:00,
2013-06-06 17:48:00,71.7,23.2,29.03,North,-999,-999.0,-999.0,16,-99.99,,,-99.99,WSDL version 420,2013-06-06 23:48:00,
2013-06-06 17:54:00,71.7,23.1,29.03,North,-999,-999.0,-999.0,16,-99.99,,,-99.99,WSDL version 420,2013-06-06 23:54:00,
2013-06-06 17:59:00,71.6,23.1,29.03,North,-999,-999.0,-999.0,16,-99.99,,,-99.99,WSDL version 420,2013-06-06 23:59:00,
2013-06-06 18:04:00,71.6,23.4,29.03,North,-999,-999.0,-999.0,16,0.00,,,0.00,WSDL version 420,2013-06-07 00:04:00,
2013-06-06 18:09:00,71.7,23.2,29.03,North,-999,-999.0,-999.0,16,0.00,,,0.00,WSDL version 420,2013-06-07 00:09:00,
2013-06-06 18:14:00,71.4,24.3,29.03,North,-999,-999.0,-999.0,17,0.00,,,0.00,WSDL version 420,2013-06-07 00:14:00,
2013-06-06 18:19:00,71.2,24.2,29.03,North,-999,-999.0,-999.0,17,0.00,,,0.00,WSDL version 420,2013-06-07 00:19:00,
2013-06-06 18:24:00,70.8,23.9,29.03,North,-999,-999.0,-999.0,17,0.00,,,0.00,WSDL version 420,2013-06-07 00:24:00,
2013-06-06 18:29:00,70.2,23.3,29.03,North,-999,-999.0,-999.0,17,0.00,,,0.00,WSDL version 420,2013-06-07 00:29:00,
2013-06-06 18:34:00,70.4,23.5,29.03,North,-999,-999.0,-999.0,17,0.00,,,0.00,WSDL version 420,2013-06-07 00:34:00,
2013-06-06 18:39:00,70.3,23.5,29.03,North,-999,-999.0,-999.0,17,-99.99,,,-99.99,WSDL version 420,2013-06-07 00:39:00,
2013-06-06 18:44:00,70.3,23.5,29.03,North,-999,-999.0,-999.0,17,-99.99,,,-99.99,WSDL version 420,2013-06-07 00:44:00,
2013-06-06 18:49:00,70.1,23.3,29.03,North,-999,-999.0,-999.0,17,-99.99,,,-99.99,WSDL version 420,2013-06-07 00:49:00,
2013-06-06 18:54:00,70.0,23.2,29.03,North,-999,-999.0,-999.0,17,-99.99,,,-99.99,WSDL version 420,2013-06-07 00:54:00,
2013-06-06 18:59:00,70.0,23.3,29.03,North,-999,-999.0,-999.0,17,0.00,,,0.00,WSDL version 420,2013-06-07 00:59:00,
2013-06-06 19:04:00,69.8,23.1,29.03,North,-999,-999.0,-999.0,17,0.00,,,0.00,WSDL version 420,2013-06-07 01:04:00,
2013-06-06 19:09:00,69.7,23.0,29.03,North,-999,-999.0,-999.0,17,-99.99,,,-99.99,WSDL version 420,2013-06-07 01:09:00,
2013-06-06 19:14:00,69.5,22.8,29.03,North,-999,-999.0,-999.0,17,0.00,,,0.00,WSDL version 420,2013-06-07 01:14:00,
2013-06-06 19:19:00,69.4,22.7,29.03,North,-999,-999.0,-999.0,17,0.00,,,0.00,WSDL version 420,2013-06-07 01:19:00,
2013-06-06 19:24:00,69.0,22.4,29.03,North,-999,-999.0,-999.0,17,0.00,,,0.00,WSDL version 420,2013-06-07 01:24:00,
2013-06-06 19:29:00,68.7,22.2,29.03,North,-999,-999.0,-999.0,17,0.00,,,0.00,WSDL version 420,2013-06-07 01:29:00,
2013-06-06 19:34:00,68.7,22.2,29.03,North,-999,-999.0,-999.0,17,-99.99,,,-99.99,WSDL version 420,2013-06-07 01:34:00,
2013-06-06 19:39:00,68.6,22.1,29.03,North,-999,-999.0,-999.0,17,0.00,,,0.00,WSDL version 420,2013-06-07 01:39:00,
2013-06-06 19:44:00,68.3,21.9,29.03,North,-999,-999.0,-999.0,17,-99.99,,,-99.99,WSDL version 420,2013-06-07 01:44:00,
2013-06-06 19:49:00,68.0,21.6,29.03,North,-999,-999.0,-999.0,17,0.00,,,0.00,WSDL version 420,2013-06-07 01:49:00,
2013-06-06 19:54:00,67.7,21.3,29.03,North,-999,-999.0,-999.0,17,0.00,,,0.00,WSDL version 420,2013-06-07 01:54:00,
2013-06-06 19:59:00,67.4,21.1,29.03,North,-999,-999.0,-999.0,17,0.00,,,0.00,WSDL version 420,2013-06-07 01:59:00,
2013-06-06 20:04:00,66.8,20.6,29.03,North,-999,-999.0,-999.0,17,0.00,,,0.00,WSDL version 420,2013-06-07 02:04:00,
2013-06-06 20:09:00,66.1,20.7,29.03,North,-999,-999.0,-999.0,18,-99.99,,,-99.99,WSDL version 420,2013-06-07 02:09:00,
2013-06-06 20:14:00,65.4,20.8,29.03,North,-999,-999.0,-999.0,18,-99.99,,,-99.99,WSDL version 420,2013-06-07 02:14:00,
2013-06-06 20:19:00,64.7,22.1,29.03,North,-999,-999.0,-999.0,20,0.00,,,0.00,WSDL version 420,2013-06-07 02:19:00,
2013-06-06 20:24:00,64.0,24.8,29.03,North,-999,-999.0,-999.0,23,0.00,,,0.00,WSDL version 420,2013-06-07 02:24:00,
2013-06-06 20:29:00,63.4,25.0,29.03,North,-999,-999.0,-999.0,23,0.00,,,0.00,WSDL version 420,2013-06-07 02:29:00,
2013-06-06 20:34:00,63.0,25.7,29.03,North,-999,-999.0,-999.0,24,0.00,,,0.00,WSDL version 420,2013-06-07 02:34:00,
2013-06-06 20:39:00,62.6,25.3,29.03,North,-999,-999.0,-999.0,24,0.00,,,0.00,WSDL version 420,2013-06-07 02:39:00,
2013-06-06 20:44:00,62.1,24.9,29.03,North,-999,-999.0,-999.0,24,-99.99,,,-99.99,WSDL version 420,2013-06-07 02:44:00,
2013-06-06 20:49:00,61.8,25.4,29.03,North,-999,-999.0,-999.0,25,0.00,,,0.00,WSDL version 420,2013-06-07 02:49:00,
2013-06-06 20:54:00,61.7,25.5,29.03,North,-999,-999.0,-999.0,25,0.00,,,0.00,WSDL version 420,2013-06-07 02:54:00,
2013-06-06 20:59:00,61.8,25.6,29.03,North,-999,-999.0,-999.0,25,0.00,,,0.00,WSDL version 420,2013-06-07 02:59:00,
2013-06-06 21:04:00,61.6,25.4,29.03,North,-999,-999.0,-999.0,25,-99.99,,,-99.99,WSDL version 420,2013-06-07 03:04:00,
2013-06-06 21:09:00,61.2,25.1,29.03,North,-999,-999.0,-999.0,25,0.00,,,0.00,WSDL version 420,2013-06-07 03:09:00,
2013-06-06 21:14:00,60.8,24.8,29.00,North,-999,-999.0,-999.0,25,-99.99,,,-99.99,WSDL version 420,2013-06-07 03:14:00,
2013-06-06 21:19:00,60.0,24.1,29.00,North,-999,-999.0,-999.0,25,0.00,,,0.00,WSDL version 420,2013-06-07 03:19:00,
2013-06-06 21:24:00,59.5,24.1,29.00,North,-999,-999.0,-999.0,26,0.00,,,0.00,WSDL version 420,2013-06-07 03:24:00,
2013-06-06 21:29:00,58.2,26.5,29.03,North,-999,-999.0,-999.0,33,0.00,,,0.00,WSDL version 420,2013-06-07 03:29:00,
2013-06-06 21:34:00,57.3,28.4,29.03,North,-999,-999.0,-999.0,33,0.00,,,0.00,WSDL version 420,2013-06-07 03:34:00,
2013-06-06 21:39:00,56.4,27.7,29.03,North,-999,-999.0,-999.0,33,0.00,,,0.00,WSDL version 420,2013-06-07 03:39:00,
2013-06-06 21:44:00,55.9,27.9,29.03,North,-999,-999.0,-999.0,35,0.00,,,0.00,WSDL version 420,2013-06-07 03:44:00,
2013-06-06 21:49:00,54.9,39.6,29.03,North,-999,-999.0,-999.0,76,0.00,,,0.00,WSDL version 420,2013-06-07 03:49:00,
2013-06-06 21:54:00,53.8,53.5,29.03,North,-999,-999.0,-999.0,100,0.00,,,0.00,WSDL version 420,2013-06-07 03:54:00,
2013-06-06 21:59:00,53.5,53.5,29.03,North,-999,-999.0,-999.0,100,0.00,,,0.00,WSDL version 420,2013-06-07 03:59:00,
2013-06-06 22:01:00,53.4,53.4,29.03,North,-999,-999.0,-999.0,100,0.00,,,0.00,WSDL version 420,2013-06-07 04:01:00,
2013-06-06 22:02:00,53.3,53.3,29.03,North,-999,-999.0,-999.0,100,0.00,,,0.00,WSDL version 420,2013-06-07 04:02:00,
2013-06-06 22:03:00,53.2,53.2,29.03,North,-999,-999.0,-999.0,100,0.00,,,0.00,WSDL version 420,2013-06-07 04:03:00,
2013-06-06 22:04:00,53.1,53.1,29.03,North,-999,-999.0,-999.0,100,0.00,,,0.00,WSDL version 420,2013-06-07 04:04:00,
2013-06-06 22:08:00,53.0,53.0,29.03,North,-999,-999.0,-999.0,100,0.00,,,0.00,WSDL version 420,2013-06-07 04:08:00,
2013-06-06 22:13:00,52.8,52.8,29.03,North,-999,-999.0,-999.0,100,0.00,,,0.00,WSDL version 420,2013-06-07 04:13:00,
2013-06-06 22:18:00,52.8,52.8,29.03,North,-999,-999.0,-999.0,100,0.00,,,0.00,WSDL version 420,2013-06-07 04:18:00,
2013-06-06 22:23:00,53.2,53.2,29.03,North,-999,-999.0,-999.0,100,0.00,,,0.00,WSDL version 420,2013-06-07 04:23:00,
2013-06-06 22:28:00,52.2,52.2,29.06,North,-999,-999.0,-999.0,100,0.00,,,0.00,WSDL version 420,2013-06-07 04:28:00,
2013-06-06 22:33:00,50.6,50.6,29.06,North,-999,-999.0,-999.0,100,0.00,,,0.00,WSDL version 420,2013-06-07 04:33:00,
2013-06-06 22:38:00,50.0,50.0,29.06,North,-999,-999.0,-999.0,100,0.00,,,0.00,WSDL version 420,2013-06-07 04:38:00,
2013-06-06 22:43:00,49.4,49.4,29.06,North,-999,-999.0,-999.0,100,0.00,,,0.00,WSDL version 420,2013-06-07 04:43:00,
2013-06-06 22:48:00,49.1,49.1,29.06,North,-999,-999.0,-999.0,100,0.00,,,0.00,WSDL version 420,2013-06-07 04:48:00,
2013-06-06 22:53:00,49.0,49.0,29.06,North,-999,-999.0,-999.0,100,0.00,,,0.00,WSDL version 420,2013-06-07 04:53:00,
2013-06-06 22:58:00,48.8,48.8,29.06,North,-999,-999.0,-999.0,100,0.00,,,0.00,WSDL version 420,2013-06-07 04:58:00,
2013-06-06 23:03:00,48.6,48.6,29.06,North,-999,-999.0,-999.0,100,0.00,,,0.00,WSDL version 420,2013-06-07 05:03:00,
2013-06-06 23:08:00,48.3,48.3,29.06,North,-999,-999.0,-999.0,100,0.00,,,0.00,WSDL version 420,2013-06-07 05:08:00,
2013-06-06 23:13:00,48.3,48.3,29.06,North,-999,-999.0,-999.0,100,0.00,,,0.00,WSDL version 420,2013-06-07 05:13:00,
2013-06-06 23:18:00,48.1,48.1,29.06,North,-999,-999.0,-999.0,100,0.00,,,0.00,WSDL version 420,2013-06-07 05:18:00,
2013-06-06 23:23:00,47.7,47.7,29.06,North,-999,-999.0,-999.0,100,0.00,,,0.00,WSDL version 420,2013-06-07 05:23:00,
2013-06-06 23:28:00,47.2,47.2,29.06,North,-999,-999.0,-999.0,100,0.00,,,0.00,WSDL version 420,2013-06-07 05:28:00,
2013-06-06 23:33:00,46.9,46.9,29.06,North,-999,-999.0,-999.0,100,0.00,,,0.00,WSDL version 420,2013-06-07 05:33:00,
2013-06-06 23:38:00,46.8,46.8,29.06,North,-999,-999.0,-999.0,100,-99.99,,,-99.99,WSDL version 420,2013-06-07 05:38:00,
2013-06-06 23:43:00,46.8,46.8,29.06,North,-999,-999.0,-999.0,100,-99.99,,,-99.99,WSDL version 420,2013-06-07 05:43:00,
2013-06-06 23:48:00,46.6,46.6,29.03,North,-999,-999.0,-999.0,100,0.00,,,0.00,WSDL version 420,2013-06-07 05:48:00,
2013-06-06 23:53:00,46.8,46.8,29.03,North,-999,-999.0,-999.0,100,0.00,,,0.00,WSDL version 420,2013-06-07 05:53:00,
2013-06-06 23:58:00,46.4,46.4,29.06,North,-999,-999.0,-999.0,100,-99.99,,,-99.99,WSDL version 420,2013-06-07 05:58:00,